Location: Carrer del Canonge
(41.4901°N, 2.2931°E)
Time: 04:00:18
(UTC+00:00)

YAOGAN 1 - Pass Details

Date: 18 September 2020
Orbit: 618 x 620 km, 97.9° (Epoch: 25 October)

Event Time Altitude Azimuth Distance (km) Brightness Sun altitude
Rises 18:20:19 0° 160° (SSE) 2,883 5.7 -5.7°
Reaches altitude 10° 18:22:30 10° 158° (SSE) 1,982 4.9 -6.1°
Maximum altitude 18:26:47 71° 75° (ENE) 658 2.5 -6.9°
Drops below altitude 10° 18:31:07 10° 352° (N) 1,997 5.4 -7.7°
Sets 18:33:19 0° 350° (N) 2,907 6.3 -8.1°
